TimeEST,TemperatureF,Dew PointF,Humidity,Sea Level PressureIn,VisibilityMPH,Wind Direction,Wind SpeedMPH,Gust SpeedMPH,PrecipitationIn,Events,Conditions,WindDirDegrees,DateUTC
12:54 AM,3.0,-2.0,80,30.50,10.0,Calm,Calm,-,N/A,,Clear,0,2013-01-25 05:54:00
1:54 AM,3.9,-0.9,80,30.47,10.0,Calm,Calm,-,N/A,,Scattered Clouds,0,2013-01-25 06:54:00
2:54 AM,5.0,-0.9,76,30.44,10.0,Calm,Calm,-,N/A,,Overcast,0,2013-01-25 07:54:00
3:54 AM,6.1,-0.0,76,30.41,10.0,Calm,Calm,-,N/A,,Overcast,0,2013-01-25 08:54:00
4:54 AM,7.0,1.0,77,30.38,10.0,SSE,3.5,-,N/A,,Overcast,150,2013-01-25 09:54:00
5:54 AM,9.0,-0.9,64,30.33,10.0,South,5.8,-,N/A,,Overcast,180,2013-01-25 10:54:00
6:54 AM,9.0,3.0,77,30.31,3.0,SSW,5.8,-,0.00,Snow,Light Snow,200,2013-01-25 11:54:00
7:54 AM,9.0,3.9,80,30.28,9.0,Calm,Calm,-,0.01,,Overcast,0,2013-01-25 12:54:00
8:00 AM,8.6,3.2,79,30.22,9.0,Calm,Calm,-,N/A,,Overcast,0,2013-01-25 13:00:00
8:41 AM,8.6,5.0,85,30.20,2.5,SSE,3.5,-,0.00,Snow,Light Snow,160,2013-01-25 13:41:00
8:54 AM,9.0,5.0,84,30.26,2.0,SSE,3.5,-,0.00,Snow,Light Snow,160,2013-01-25 13:54:00
9:31 AM,10.4,6.8,85,30.18,1.5,South,4.6,-,0.00,Snow,Light Snow,180,2013-01-25 14:31:00
9:54 AM,10.0,7.0,87,30.23,2.0,South,4.6,-,0.01,Snow,Light Snow,170,2013-01-25 14:54:00
10:29 AM,10.4,6.8,85,30.16,3.0,South,3.5,-,0.00,Snow,Light Snow,170,2013-01-25 15:29:00
10:54 AM,12.0,8.1,84,30.21,4.0,South,4.6,-,0.00,Snow,Light Snow,180,2013-01-25 15:54:00
11:54 AM,14.0,8.1,77,30.16,10.0,SSE,8.1,-,0.01,,Overcast,160,2013-01-25 16:54:00
12:11 PM,14.0,8.6,79,30.09,2.5,South,9.2,-,0.00,Snow,Light Snow,180,2013-01-25 17:11:00
12:37 PM,15.8,8.6,73,30.08,3.0,South,6.9,-,0.00,Snow,Light Snow,170,2013-01-25 17:37:00
12:54 PM,15.1,9.0,77,30.12,3.0,South,6.9,-,0.00,Snow,Light Snow,180,2013-01-25 17:54:00
1:01 PM,15.8,8.6,73,30.07,2.5,South,8.1,-,0.00,Snow,Light Snow,190,2013-01-25 18:01:00
1:16 PM,15.8,8.6,73,30.05,3.0,South,9.2,-,0.00,Snow,Light Snow,170,2013-01-25 18:16:00
1:34 PM,15.8,10.4,79,30.04,2.0,South,9.2,-,0.00,Snow,Light Snow,170,2013-01-25 18:34:00
1:54 PM,16.0,10.9,81,30.08,2.0,South,8.1,-,0.00,Snow,Light Snow,170,2013-01-25 18:54:00
2:00 PM,15.8,10.4,79,30.02,1.5,South,10.4,-,0.00,Snow,Light Snow,170,2013-01-25 19:00:00
2:21 PM,17.6,10.4,73,30.01,3.0,SSE,11.5,-,0.00,Snow,Light Snow,160,2013-01-25 19:21:00
2:54 PM,18.0,10.9,74,30.04,9.0,SSE,11.5,-,0.01,,Overcast,160,2013-01-25 19:54:00
3:54 PM,18.0,10.0,71,30.03,5.0,South,8.1,-,0.00,Snow,Light Snow,180,2013-01-25 20:54:00
4:07 PM,17.6,10.4,73,29.99,2.5,South,9.2,-,0.00,Snow,Light Snow,170,2013-01-25 21:07:00
4:33 PM,17.6,12.2,79,29.98,1.8,South,9.2,-,0.00,Snow,Light Snow,170,2013-01-25 21:33:00
4:41 PM,17.6,12.2,79,29.98,2.5,South,8.1,-,0.00,Snow,Light Snow,170,2013-01-25 21:41:00
4:50 PM,17.6,12.2,79,29.99,3.0,South,6.9,-,0.00,Snow,Light Snow,180,2013-01-25 21:50:00
4:54 PM,18.0,12.0,78,30.03,3.0,South,6.9,-,0.00,Snow,Light Snow,180,2013-01-25 21:54:00
5:09 PM,17.6,12.2,79,29.99,2.5,South,5.8,-,0.00,Snow,Light Snow,170,2013-01-25 22:09:00
5:39 PM,17.6,12.2,79,29.98,5.0,South,4.6,-,0.00,Snow,Light Snow,180,2013-01-25 22:39:00
5:54 PM,17.1,12.9,84,30.03,9.0,South,5.8,-,0.00,Snow,Light Snow,180,2013-01-25 22:54:00
6:54 PM,17.1,12.9,84,30.04,7.0,South,3.5,-,0.00,Snow,Light Snow,170,2013-01-25 23:54:00
7:54 PM,17.1,12.9,84,30.05,6.0,Calm,Calm,-,0.00,Snow,Light Snow,0,2013-01-26 00:54:00
8:54 PM,17.1,12.9,84,30.05,4.0,Calm,Calm,-,0.00,Snow,Light Snow,0,2013-01-26 01:54:00
9:54 PM,15.1,12.9,91,30.05,4.0,Calm,Calm,-,0.00,Snow,Light Snow,0,2013-01-26 02:54:00
10:54 PM,12.0,10.0,92,30.06,4.0,Calm,Calm,-,0.00,Snow,Light Snow,0,2013-01-26 03:54:00
11:39 PM,10.4,6.8,85,30.02,1.5,Calm,Calm,-,0.00,,Overcast,0,2013-01-26 04:39:00
11:47 PM,6.8,5.0,92,30.02,0.5,Calm,Calm,-,0.00,Fog,Light Freezing Fog,0,2013-01-26 04:47:00
11:54 PM,7.0,5.0,92,30.06,0.5,Calm,Calm,-,0.00,Fog,Light Freezing Fog,0,2013-01-26 04:54:00